Weather History for Marathon, FL

Change the Weather History Date:

Sunday, January 27, 2013

  Actual Average Record
Temperature  
Mean Temperature 76 °F 70 °F  
Max Temperature 80 °F 76 °F 83 °F (2012)
Min Temperature 71 °F 65 °F 50 °F (2000)
Degree Days  
Heating Degree Days 0 1  
Month to date heating degree days 0 36  
Since 1 July heating degree days 6 57  
Cooling Degree Days 11 6  
Month to date cooling degree days 280 162  
Year to date cooling degree days 280 162  
Growing Degree Days 25 (Base 50)    
Moisture  
Dew Point 64 °F    
Average Humidity 71    
Maximum Humidity 84    
Minimum Humidity 58    
Precipitation  
Precipitation 0.00 in 0.06 in 0.31 in (2004)
Month to date precipitation 0.54 1.36  
Year to date precipitation 0.54 1.36  
Snow  
Snow 0.00 in - - ()
Month to date snowfall 0.0  
Since 1 July snowfall 0.0  
Snow Depth 0.00 in    
Sea Level Pressure  
Sea Level Pressure 30.21 in    
Wind  
Wind Speed 11 mph (ENE)    
Max Wind Speed 20 mph    
Max Gust Speed 28 mph    
Visibility 10 miles    
Events      
T = Trace of Precipitation, MM = Missing Value Source: NWS Daily Summary

Daily Weather History Graph

Daily Weather History Graph

Search for Another Location

Airport:

Trip Planner

Search our weather history database for the weather conditions in past years. The results will help you decide how hot, cold, wet, or windy it might be!

Date:

Astronomy

Jan. 27, 2013 Rise Set
Actual Time 7:08 AM EST 6:06 PM EST
Civil Twilight 6:44 AM EST 6:30 PM EST
Nautical Twilight 6:16 AM EST 6:57 PM EST
Astronomical Twilight 5:49 AM EST 7:24 PM EST
Moon 6:47 PM EST (1/27) 7:08 AM EST (1/27)
Length of Visible Light 11h 45m
Length of Day
10h 57m
Full, 100% of the Moon is Illuminated
Jan 27
Full
Feb 3
Last Quarter
Feb 10
New
Feb 17
First Quarter
Feb 25
Full

Hourly Weather History & Observations

Time (EST) Temp. Dew Point Humidity Pressure Visibility Wind Dir Wind Speed Gust Speed Precip Events Conditions
12:53 AM 71.1 °F 64.9 °F 81% 30.19 in 10.0 mi NNE 6.9 mph - N/A   Partly Cloudy
1:53 AM 71.1 °F 64.0 °F 78% 30.18 in 10.0 mi NE 10.4 mph - N/A   Overcast
2:53 AM 71.1 °F 64.0 °F 78% 30.17 in 10.0 mi NE 8.1 mph - N/A   Overcast
3:53 AM 71.1 °F 64.9 °F 81% 30.16 in 9.0 mi NE 9.2 mph - N/A   Overcast
4:53 AM 71.1 °F 64.9 °F 81% 30.16 in 9.0 mi NE 8.1 mph - N/A   Overcast
5:53 AM 71.1 °F 64.9 °F 81% 30.18 in 9.0 mi NE 10.4 mph - N/A   Overcast
6:53 AM 71.1 °F 64.9 °F 81% 30.19 in 9.0 mi NE 9.2 mph - N/A   Overcast
7:53 AM 71.1 °F 66.0 °F 84% 30.20 in 8.0 mi NE 10.4 mph - N/A   Overcast
8:53 AM 72.0 °F 66.0 °F 81% 30.22 in 8.0 mi NE 10.4 mph - N/A   Overcast
9:53 AM 73.0 °F 66.0 °F 79% 30.23 in 9.0 mi NE 10.4 mph - N/A   Overcast
10:53 AM 75.0 °F 66.0 °F 73% 30.24 in 10.0 mi NE 9.2 mph - N/A   Mostly Cloudy
11:53 AM 77.0 °F 64.0 °F 64% 30.24 in 10.0 mi East 13.8 mph 19.6 mph N/A   Mostly Cloudy
12:53 PM 78.1 °F 63.0 °F 60% 30.22 in 10.0 mi East 10.4 mph 20.7 mph N/A   Overcast
1:53 PM 79.0 °F 63.0 °F 58% 30.19 in 10.0 mi East 13.8 mph 21.9 mph N/A   Mostly Cloudy
2:53 PM 79.0 °F 63.0 °F 58% 30.18 in 10.0 mi ENE 16.1 mph 21.9 mph N/A   Partly Cloudy
3:53 PM 78.1 °F 62.1 °F 58% 30.18 in 10.0 mi East 13.8 mph 20.7 mph N/A   Clear
4:53 PM 77.0 °F 63.0 °F 62% 30.20 in 10.0 mi East 10.4 mph - N/A   Overcast
5:53 PM 75.0 °F 63.0 °F 66% 30.21 in 10.0 mi East 9.2 mph 18.4 mph N/A   Scattered Clouds
6:53 PM 75.0 °F 62.1 °F 64% 30.22 in 10.0 mi ENE 10.4 mph - N/A   Mostly Cloudy
7:53 PM 73.9 °F 63.0 °F 68% 30.23 in 10.0 mi East 10.4 mph - N/A   Clear
8:53 PM 73.9 °F 64.0 °F 71% 30.24 in 10.0 mi ENE 9.2 mph - N/A   Partly Cloudy
9:53 PM 73.9 °F 64.0 °F 71% 30.24 in 10.0 mi ENE 10.4 mph - N/A   Scattered Clouds
10:26 PM 73.4 °F 64.4 °F 73% 30.24 in 10.0 mi East 9.2 mph 17.3 mph N/A   Mostly Cloudy
10:33 PM 73.4 °F 64.4 °F 73% 30.24 in 10.0 mi East 10.4 mph 19.6 mph N/A   Mostly Cloudy
10:53 PM 75.0 °F 64.0 °F 69% 30.24 in 10.0 mi East 11.5 mph 24.2 mph N/A   Mostly Cloudy
11:53 PM 75.0 °F 61.0 °F 62% 30.22 in 10.0 mi East 11.5 mph 21.9 mph N/A   Partly Cloudy